FW2245 Weather Reports


time (UTC)temp
C
wind
direction
speed
KPH
gust
KPH
rain 1hr
cm
rain 24hr
cm
rain mn
cm
humidity
%
barometer
mb
20260510153054 12 336 3.2 14.5 0.00 1.14 0.00 46 1017.8
20260510151539 12 311 4.8 14.5 0.00 1.14 0.00 48 1017.7
20260510150042 12 329 3.2 22.5 0.00 1.14 0.00 47 1017.6
20260510144543 11 355 4.8 17.7 0.00 1.14 0.00 52 1017.4
20260510143044 11 21 9.7 17.7 0.00 1.14 0.00 54 1017.4
20260510141537 10 73 6.4 20.9 0.00 1.14 0.00 56 1017.4
20260510140038 9 11 4.8 17.7 0.00 1.14 0.00 62 1017.4
20260510134540 9 40 4.8 17.7 0.00 1.14 0.00 64 1017.3
20260510133037 8 355 6.4 14.5 0.00 1.14 0.00 68 1016.9
20260510131537 8 16 4.8 17.7 0.00 1.14 0.00 72 1016.8
20260510130037 8 26 6.4 16.1 0.00 1.14 0.00 77 1016.5
20260510124542 8 340 3.2 14.5 0.00 1.14 0.00 83 1016.1
20260510123038 8 350 4.8 16.1 0.00 1.14 0.00 85 1015.9
20260510121638 8 46 1.6 9.7 0.00 1.14 0.00 87 1015.7
20260510120038 8 0 1.6 6.4 0.00 1.14 0.00 88 1015.6
20260510114543 8 0 0.0 6.4 0.00 1.14 0.00 89 1015.2
20260510113036 8 0 0.0 4.8 0.00 1.14 0.00 89 1014.7
20260510111538 8 0 0.0 1.6 0.00 1.14 0.00 90 1014.4
20260510110038 8 0 0.0 0.0 0.00 1.14 0.00 90 1014.0
20260510104537 7 0 0.0 3.2 0.00 1.14 0.00 90 1013.8
20260510103037 7 0 0.0 4.8 0.00 1.14 0.00 89 1013.2
20260510101540 7 0 0.0 1.6 0.00 1.14 0.00 90 1013.2
20260510100059 7 0 0.0 1.6 0.00 1.14 0.00 89 1013.0
20260510094551 7 0 0.0 0.0 0.00 1.14 0.00 89 1012.8
20260510093038 7 0 0.0 1.6 0.00 1.14 0.00 90 1012.8
20260510091538 7 0 0.0 0.0 0.00 1.14 0.00 90 1012.4
20260510090047 7 0 0.0 0.0 0.00 1.14 0.00 90 1012.0
20260510084546 7 0 0.0 0.0 0.00 1.14 0.00 90 1011.7
20260510083034 8 0 0.0 1.6 0.00 1.14 0.00 89 1011.7
20260510081549 8 0 0.0 0.0 0.00 1.14 0.00 89 1011.5
20260510080039 8 0 0.0 0.0 0.00 1.14 0.00 89 1011.7
20260510074537 8 0 0.0 0.0 0.00 1.17 0.00 90 1011.1
20260510073037 9 0 0.0 6.4 0.00 1.17 0.00 90 1011.0
20260510071543 9 0 1.6 8.0 0.00 1.17 0.00 91 1010.7
20260510070044 10 17 0.0 16.1 0.00 1.17 0.00 92 1010.4
20260510064539 11 0 0.0 14.5 0.00 1.45 0.00 93 1010.0
20260510063037 11 360 3.2 16.1 0.00 1.45 0.00 93 1009.9
20260510061537 11 0 0.0 0.0 0.00 1.45 0.00 93 1009.7
20260510060037 11 0 0.0 0.0 0.00 1.45 0.00 93 1009.4
20260510054536 11 0 0.0 0.0 0.00 1.70 0.00 93 1009.5
20260510053041 11 0 0.0 6.4 0.00 1.70 0.00 93 1009.5
20260510051542 11 142 1.6 14.5 0.00 1.70 0.00 93 1008.9
20260510050039 11 0 0.0 4.8 0.00 1.70 0.00 93 1008.5
20260510044538 11 0 0.0 3.2 0.00 1.91 0.00 93 1008.3
20260510043041 11 0 0.0 1.6 0.00 1.91 0.00 92 1008.2
20260510041538 11 0 0.0 3.2 0.15 1.91 0.00 92 1008.2
20260510040045 12 192 0.0 1.6 0.28 1.91 0.00 92 1008.3
20260510034543 12 0 0.0 4.8 0.28 1.93 1.91 92 1008.1
20260510033039 12 0 0.0 4.8 0.28 1.93 1.91 92 1008.3
20260510031537 12 0 1.6 14.5 0.13 1.78 1.75 92 1008.5
20260510030039 12 0 0.0 1.6 0.20 1.65 1.63 92 1007.9
20260510024539 12 0 0.0 0.0 0.20 1.75 1.63 92 1008.3
20260510023038 12 0 0.0 12.9 0.20 1.75 1.63 92 1008.1
20260510021538 12 265 1.6 14.5 0.20 1.75 1.63 92 1008.5
20260510020043 12 0 0.0 1.6 0.00 1.55 1.42 91 1007.6
20260510014542 12 0 0.0 1.6 0.00 1.63 1.42 91 1007.6
20260510013037 12 0 0.0 0.0 0.00 1.63 1.42 91 1007.4
20260510011544 12 0 0.0 3.2 0.00 1.63 1.42 90 1007.2
20260510010038 12 0 0.0 4.8 0.00 1.63 1.42 90 1007.1
20260510004539 12 0 0.0 8.0 0.05 1.73 1.42 90 1007.0
20260510003039 12 0 0.0 11.3 0.15 1.73 1.42 90 1007.0
20260510001539 12 0 0.0 12.9 0.61 1.73 1.42 89 1007.0
20260510000100 12 0 3.2 14.5 0.66 1.73 1.42 89 1007.0
20260509234553 12 178 4.8 22.5 0.61 1.91 1.37 88 1007.2
20260509233045 13 267 3.2 24.1 0.48 1.78 1.24 85 1007.4
20260509231538 15 340 4.8 16.1 0.05 1.32 0.81 76 1006.8
20260509230039 20 200 1.6 14.5 0.00 1.30 0.76 56 1005.7
20260509224536 20 0 3.2 22.5 0.00 1.47 0.76 53 1004.9
20260509223039 20 198 6.4 22.5 0.00 1.47 0.76 52 1004.7
20260509221542 20 239 4.8 30.6 0.00 1.47 0.76 53 1004.8
20260509220041 20 153 8.0 27.4 0.00 1.47 0.76 52 1004.7
20260509214540 20 178 3.2 24.1 0.00 1.52 0.76 55 1004.7
20260509213040 20 201 9.7 30.6 0.00 1.52 0.76 53 1004.6
20260509211540 20 259 8.0 24.1 0.00 1.52 0.76 54 1004.9
20260509210044 20 186 9.7 37.0 0.00 1.52 0.76 55 1005.1
20260509204543 20 190 8.0 29.0 0.00 1.65 0.76 56 1005.2
20260509203036 20 242 4.8 25.7 0.00 1.65 0.76 58 1005.4
20260509201540 20 207 6.4 25.7 0.00 1.65 0.76 57 1005.5
20260509200045 20 157 6.4 19.3 0.00 1.65 0.76 58 1005.7
20260509194539 20 160 8.0 29.0 0.00 1.68 0.76 57 1006.0
20260509193037 20 250 8.0 24.1 0.00 1.68 0.76 57 1006.0
20260509191537 20 201 6.4 29.0 0.00 1.68 0.76 56 1006.2
20260509190038 19 164 8.0 30.6 0.00 1.68 0.76 57 1006.6
20260509184553 18 223 6.4 17.7 0.00 1.68 0.76 61 1006.7
20260509183041 18 212 6.4 22.5 0.00 1.68 0.76 63 1006.5
20260509181545 18 130 6.4 24.1 0.00 1.68 0.76 60 1006.5
20260509180041 18 163 8.0 17.7 0.00 1.68 0.76 62 1006.6
20260509174539 18 243 3.2 16.1 0.00 1.73 0.76 65 1006.7
20260509173039 18 163 8.0 19.3 0.00 1.73 0.76 65 1006.9
20260509171538 18 167 4.8 19.3 0.00 1.73 0.76 64 1006.9
20260509170039 18 148 0.0 17.7 0.00 1.73 0.76 67 1006.9
20260509164542 17 169 4.8 19.3 0.00 1.73 0.76 67 1006.8
20260509163039 16 242 4.8 14.5 0.00 1.73 0.76 66 1007.2
20260509161538 16 0 1.6 17.7 0.00 1.73 0.76 70 1007.5
20260509160044 16 170 4.8 20.9 0.00 1.73 0.76 69 1007.4
20260509154540 16 184 3.2 19.3 0.00 1.73 0.76 72 1007.4